Weather in Pitelino

Russia / Ryazan Oblast     54°34′31″N   41°48′55″E
temp.,
°C
wind,
m/s
gust,
m/s
humid.,
%
clouds,
%
prec.,
mm/h
press.,
hPa
HPBL,
m
4 march, thu
thu400:00−1w71391100 0.1 1009660
03:00−1wsw71292100 0.1 1006681
06:00−1wsw71392100 0.1 1003734
09:000w91597100 1.2 1001923
12:000wsw91590100 0.1 1000816
15:000w71293100 0.2 1000786
18:00−1wsw5997100 0.6 1000456
21:00−2nnw3585100 2.1 1000141
5 march, fri
fri500:00−3wnw2397100 0.6 100086
03:00−4nnw3497100 1.2 1002133
06:00−7nnw3495100 0.1 100483
09:00−8nw249379 0.1 1006142
12:00−4wnw248748 0.0 1007546
15:00−2w468573 0.1 1009817
18:00−6w489050 0.1 1010155
21:00−9w479025 0.1 1013103
6 march, sat
sat600:00−11wnw34910 0.0 101543
03:00−12nw23920 0.0 101621
06:00−15n11950 0.0 101620
09:00−12e11930 0.0 101748
12:00−8se118854 0.0 1016238
15:00−6se118676 0.0 1015263
18:00−10s129156 0.0 101521
21:00−10sw229666 0.1 101627
7 march, sun
sun700:00−9nw3596100 0.3 1015152
03:00−13w339666 0.4 101424
06:00−14sw489215 0.0 1012135
09:00−9sw7148351 0.0 1009510
12:00−5sw91683100 0.1 1005909
15:00−4sw101793100 0.8 10001285
18:00−3sw91693100 2.0 9971061
21:00−6wnw51383100 3.3 999751
8 march, mon
mon800:00−11wsw598231 0.0 1001138
03:00−11sw6147716 0.0 1001303
06:00−10ssw512870 0.0 998259
09:00−7ssw6139317 0.1 996667
12:00−6wnw81280100 1.3 9961142
15:00−7w8128599 1.4 10001280
18:00−8wnw81581100 0.3 1004870
21:00−11wnw6138790 0.3 1008391